User: anonymous   Login
Location: *
(53.9002°N, 27.5624°E)
Time: 23:16:15
(UTC+00:00)
Language:

IRS-1C Rocket - Orbit

View from above orbital plane
View from above orbital plane
View from above satellite
View from above satellite

Ground track
Ground track

The orbit data is extracted from the following two-line orbital elements,

1 23753U 95072C   20023.50066882 -.00000040  00000-0  29528-5 0  9991
2 23753  98.9796  33.7536 0004214  39.6693 320.4794 14.26590536252935
Epoch (UTC): 23 January 2020 12:00:57
Eccentricity: 0.0004214
inclination: 98.9796°
perigee height: 800 km
apogee height: 806 km
right ascension of ascending node: 33.7536°
argument of perigee: 39.6693°
revolutions per day: 14.26590536
mean anomaly at epoch: 320.4794°
orbit number at epoch: 25293

The dashed part of the orbit path shows where the satellite is in the earth's shadow,  

DLR